CST,Max TemperatureF,Mean TemperatureF,Min TemperatureF,Max Dew PointF,MeanDew PointF,Min DewpointF,Max Humidity, Mean Humidity, Min Humidity, Max Sea Level PressureIn, Mean Sea Level PressureIn, Min Sea Level PressureIn, Max VisibilityMiles, Mean VisibilityMiles, Min VisibilityMiles, Max Wind SpeedMPH, Mean Wind SpeedMPH, Max Gust SpeedMPH,PrecipitationIn, CloudCover, Events, WindDirDegrees
2013-11-1,64,55,45,46,42,38,93,70,47,29.98,29.83,29.72,10,10,7,32,9,45,0.02,2,Rain,279
2013-11-2,55,45,35,40,37,33,92,71,50,30.23,30.13,29.96,10,10,10,18,9,24,0.00,2,,302
2013-11-3,59,46,33,39,35,31,96,70,43,30.25,30.15,30.04,10,10,8,28,14,33,0.00,0,,153
2013-11-4,62,55,48,49,44,38,83,72,60,30.17,30.08,30.01,10,10,10,25,17,32,0.01,7,Rain,163
2013-11-5,60,57,53,57,54,49,100,92,83,30.16,30.06,29.94,10,8,2,24,16,30,0.48,8,Rain,157
2013-11-6,60,49,37,58,42,32,96,85,73,30.36,30.13,29.88,10,8,2,21,12,31,0.61,8,Rain,307
2013-11-7,58,44,30,37,33,28,96,68,40,30.43,30.38,30.34,10,10,10,16,5,20,0.00,0,,280
2013-11-8,64,49,33,39,35,31,89,61,33,30.36,30.20,30.06,10,10,10,24,13,30,0.00,0,,164
2013-11-9,64,53,41,43,40,37,83,63,43,30.28,30.17,30.08,10,10,10,16,7,23,0.00,2,,219
2013-11-10,64,51,37,39,35,31,92,61,30,30.41,30.33,30.27,10,10,8,14,5,17,0.00,0,,107
2013-11-11,62,50,37,51,43,34,89,75,60,30.46,30.26,30.18,10,9,5,25,10,32,T,8,Rain,237
2013-11-12,37,30,22,31,18,13,85,62,38,30.78,30.68,30.50,10,10,10,25,12,30,0.00,3,,9
2013-11-13,49,34,18,18,16,12,84,54,23,30.71,30.52,30.30,10,10,10,17,10,21,0.00,0,,178
2013-11-14,55,41,27,26,20,16,63,42,20,30.28,30.15,30.03,10,10,10,21,12,26,0.00,1,,175
2013-11-15,57,50,43,47,40,28,83,66,49,30.05,29.95,29.86,10,10,9,23,13,29,0.03,6,Rain,163
2013-11-16,70,61,51,61,55,47,93,77,61,29.85,29.70,29.57,10,10,8,37,19,47,0.04,5,Rain-Thunderstorm,172
2013-11-17,73,60,47,62,42,18,81,50,19,30.05,29.70,29.47,10,10,10,36,18,51,0.00,2,,247
2013-11-18,58,48,38,37,30,25,82,55,28,30.29,30.23,30.06,10,10,10,13,5,20,0.00,0,,2
2013-11-19,56,47,37,29,26,21,64,47,29,30.28,30.19,30.07,10,10,10,25,14,32,0.00,3,,141
2013-11-20,57,48,39,32,29,21,70,51,32,30.07,30.00,29.91,10,10,8,29,17,37,0.08,6,Rain-Thunderstorm,153
2013-11-21,54,47,39,49,45,31,93,67,41,30.27,30.09,29.99,10,7,1,21,8,25,0.75,8,Rain-Thunderstorm,151
2013-11-22,39,35,30,35,29,27,100,93,85,30.55,30.46,30.30,10,6,2,23,14,27,T,8,Rain,352
2013-11-23,38,28,18,27,18,9,85,64,43,30.72,30.64,30.52,10,10,10,24,13,28,0.00,3,,6
2013-11-24,29,22,14,10,8,5,80,58,35,30.73,30.59,30.38,10,10,10,16,8,19,0.00,3,,106
2013-11-25,36,33,29,28,21,10,78,60,42,30.37,30.25,30.17,10,10,10,15,7,19,T,8,,195
2013-11-26,43,33,23,28,23,12,85,68,51,30.34,30.21,30.14,10,10,10,26,13,33,T,3,,333
2013-11-27,33,24,15,14,11,9,74,56,38,30.44,30.36,30.30,10,10,10,17,8,23,0.00,0,,313
2013-11-28,49,36,22,26,21,15,78,58,37,30.46,30.35,30.27,10,10,10,20,7,26,0.00,0,,235
2013-11-29,53,39,24,29,26,20,81,60,38,30.52,30.43,30.33,10,10,10,17,9,20,0.00,0,,160
2013-11-30,60,47,34,42,35,26,89,68,46,30.31,30.19,30.11,10,10,10,21,12,26,0.00,1,,191